Location: Sternwarte_Laufen
(47.9344°N, 12.9346°E)
Time: 15:42:01
(UTC+02:00)

ISS - Pass Details

Date: 13 May 2026
Orbit: 414 x 424 km, 51.6° (Epoch: 21 May)

Event Time Altitude Azimuth Distance (km) Brightness Sun altitude
Rises 21:43:11 0° 260° (W) 2,346 0.6 -9.7°
Reaches altitude 10° 21:45:18 10° 265° (W) 1,486 -0.3 -10.0°
Maximum altitude 21:48:36 57° 345° (NNW) 495 -3.1 -10.4°
Drops below altitude 10° 21:51:54 10° 65° (ENE) 1,492 -1.2 -10.8°
Sets 21:54:01 0° 70° (ENE) 2,358 -0.2 -11.1°
